This is the latest recevied weather packets stored in our database for station/object N5SRF. If no packets are shown the sender has not sent any weather packets the latest 10 day(s).
| Time | Temp. | Humidity | Pressure | Rain* | Wind** | Luminosity | Snow |
|---|---|---|---|---|---|---|---|
| 1778096748 | 26.67° C | 90% | 1013.4 hPa | 0 mm | - | 47 W/m² | - |
| 1778096444 | 26.67° C | 90% | 1013.4 hPa | 0 mm | - | 112 W/m² | - |
| 1778096141 | 26.67° C | 90% | 1013.4 hPa | 0 mm | - | 159 W/m² | - |
| 1778095838 | 26.67° C | 91% | 1013.4 hPa | 0 mm | - | 217 W/m² | - |
| 1778095535 | 26.67° C | 90% | 1013.6 hPa | 0 mm | - | 175 W/m² | - |
| 1778095231 | 27.22° C | 90% | 1013.4 hPa | 0 mm | - | 81 W/m² | - |
| 1778094928 | 27.78° C | 89% | 1013.6 hPa | 0 mm | - | 78 W/m² | - |
| 1778094624 | 27.78° C | 89% | 1013.6 hPa | 0 mm | - | 236 W/m² | - |
| 1778094321 | 27.78° C | 89% | 1013.5 hPa | 0 mm | - | 331 W/m² | - |
| 1778094018 | 27.22° C | 88% | 1013.5 hPa | 0 mm | - | 207 W/m² | - |
| 1778093715 | 27.22° C | 89% | 1013.7 hPa | 0 mm | - | 162 W/m² | - |
| 1778093412 | 27.22° C | 90% | 1013.8 hPa | 0 mm | - | 175 W/m² | - |
| 1778093109 | 27.22° C | 92% | 1013.8 hPa | 0 mm | - | 307 W/m² | - |
| 1778092806 | 26.67° C | 93% | 1013.8 hPa | 0 mm | - | 449 W/m² | - |
| 1778092501 | 26.67° C | 96% | 1014 hPa | 0 mm | - | 382 W/m² | - |
| 1778092199 | 26.67° C | 95% | 1014.2 hPa | 0 mm | - | 710 W/m² | - |
| 1778091896 | 26.67° C | 97% | 1014.3 hPa | 0 mm | - | 706 W/m² | - |
| 1778091594 | 26.67° C | 96% | 1014.4 hPa | 0 mm | - | 324 W/m² | - |
| 1778091292 | 26.11° C | 96% | 1014.8 hPa | 0 mm | - | 200 W/m² | - |
| 1778090987 | 26.67° C | 95% | 1014.8 hPa | 0 mm | - | 154 W/m² | - |
| 1778090684 | 26.11° C | 95% | 1014.8 hPa | 1.78 mm | - | 181 W/m² | - |
| 1778090381 | 26.67° C | 94% | 1014.9 hPa | 3.05 mm | - | 163 W/m² | - |
| 1778090078 | 26.11° C | 93% | 1015.2 hPa | 1.27 mm | - | 123 W/m² | - |
| 1778089768 | 26.67° C | 92% | 1015.2 hPa | 0 mm | - | 58 W/m² | - |
| 1778089466 | 26.67° C | 91% | 1015.3 hPa | 0 mm | - | 50 W/m² | - |
* Rain latest hour (hover to see other rain measurements)
** Current wind speed in m/s (hover to see current wind gust speed)